Location: Home
(42.5358°N, 72.7383°W)
Time: 16:01:47
(UTC-05:00)

AO-27 - Visible Passes

Search period start: 22 January 2022 00:00
Search period end: 01 February 2022 00:00
Orbit: 784 x 798 km, 98.9° (Epoch: 22 January)

Date Brightness Start Highest point End Pass type
(mag) Time Alt. Az. Time Alt. Az. Time Alt. Az.
22 Jan 10.9 06:01:33 10° ENE 06:03:39 12° E 06:05:46 10° ESE visible
22 Jan 8.7 17:19:20 10° ESE 17:23:20 23° ENE 17:27:20 10° NNE visible
22 Jan 8.6 18:57:28 10° S 19:02:28 48° W 19:07:30 10° NNW visible
23 Jan 7.6 18:28:02 10° SSE 18:33:15 88° WSW 18:38:28 10° NNW visible
23 Jan 10.8 20:12:26 10° W 20:13:24 10° W 20:14:23 10° WNW visible
24 Jan 9.9 06:40:40 10° NE 06:45:12 30° E 06:49:42 10° SSE visible
24 Jan 7.8 17:59:09 10° SE 18:04:09 50° ENE 18:09:09 10° N visible
24 Jan 10.1 19:40:03 10° SW 19:43:52 21° W 19:47:42 10° NW visible
25 Jan 10.7 06:12:35 10° NE 06:15:45 16° E 06:18:54 10° SE visible
25 Jan 8.5 17:30:47 10° ESE 17:35:10 28° ENE 17:39:33 10° N visible
25 Jan 9.1 19:09:40 10° SSW 19:14:28 37° W 19:19:18 10° NNW visible
26 Jan 7.9 18:40:01 10° S 18:45:12 70° WSW 18:50:23 10° NNW visible
27 Jan 7.6 18:10:55 10° SSE 18:16:02 64° ENE 18:21:11 10° N visible
27 Jan 10.4 19:52:48 10° SW 19:55:56 16° W 19:59:06 10° NW visible
28 Jan 10.5 06:23:58 10° NE 06:27:49 21° E 06:31:39 10° SE visible
28 Jan 8.2 17:42:20 10° SE 17:47:01 35° ENE 17:51:42 10° N visible
28 Jan 9.5 19:21:59 10° SSW 19:26:29 30° W 19:31:00 10° NW visible
29 Jan 11.2 05:57:13 10° ENE 05:58:16 11° E 05:59:19 10° E visible
29 Jan 8.4 18:52:05 10° S 18:57:10 55° W 19:02:15 10° NNW visible
30 Jan 7.6 18:22:47 10° SSE 18:27:57 81° ENE 18:33:10 10° NNW visible
30 Jan 10.7 20:05:58 10° WSW 20:08:02 12° W 20:10:06 10° WNW visible
31 Jan 10.2 06:35:32 10° NE 06:39:51 26° E 06:44:10 10° SSE visible
31 Jan 7.9 17:53:59 10° SE 17:58:53 44° ENE 18:03:47 10° N visible
31 Jan 9.9 19:34:26 10° SSW 19:38:31 23° W 19:42:38 10° NW visible
